Volver al catálogo

STARLINK-3278

ActivoComunicacionesVLEO
NORAD 50830·PAYLOAD·🇺🇸 United States

Lanzado Jan 6, 2022 desde Cape Canaveral Space Force Station

Loading…

Próximos Pases (próximas 24 horas)

TLE

ActualizadoSource: CelesTrak SupGP

Época: Sep 14, 2026, 13:45 UTC

1 50830C 22001AD  26257.57340278 -.00027208  00000+0 -80385-3 0  2573
2 50830  53.1592  37.0656 0001037  87.4840  36.7380 15.34405018    11

Sigue STARLINK-3278 en tiempo real con AllMySat

Download on the App Store